Location: Melbourne
(37.8170°S, 144.9670°E)
Time: 07:17:21
(UTC+11:00)

ERBS - Visible Passes

Search period start: 08 December 2016 00:00
Search period end: 18 December 2016 00:00
Orbit: 427 x 451 km, 57.0° (Epoch: 06 December)

Date Brightness Start Highest point End Pass type
(mag) Time Alt. Az. Time Alt. Az. Time Alt. Az.
08 Dec 3.9 02:59:21 34° SSW 02:59:21 34° SSW 03:02:12 10° SSE visible
09 Dec 4.5 02:19:43 28° SSE 02:19:43 28° SSE 02:21:38 10° SE visible
10 Dec 5.1 01:40:02 17° SE 01:40:02 17° SE 01:40:58 10° SE visible
10 Dec 5.1 03:13:23 11° SW 03:14:35 13° SSW 03:16:20 10° S visible
11 Dec 4.9 02:33:37 18° SW 02:33:39 18° SW 02:36:12 10° S visible
12 Dec 4.8 01:53:47 22° SSW 01:53:47 22° SSW 01:55:50 10° SSE visible
13 Dec 5.0 01:13:50 21° SSE 01:13:50 21° SSE 01:15:19 10° SSE visible
14 Dec 5.1 00:33:46 17° SSE 00:33:46 17° SSE 00:34:43 10° SE visible
14 Dec 5.2 23:53:32 13° SE 23:53:32 13° SE 23:53:58 10° SE visible
15 Dec 5.4 01:26:50 13° SW 01:27:35 13° SSW 01:29:27 10° S visible
15 Dec 5.2 23:13:02 10° SE 23:13:02 10° SE 23:13:06 10° SE visible
16 Dec 5.0 00:46:19 18° SW 00:46:38 19° SW 00:49:15 10° S visible
17 Dec 4.5 00:05:17 26° SW 00:05:43 27° SW 00:08:50 10° SSE visible
17 Dec 4.5 21:49:56 13° E 21:49:56 13° E 21:50:37 10° E visible
17 Dec 3.7 23:23:02 22° WNW 23:24:51 40° SW 23:28:17 10° SSE visible
